Location: Unspecified
(0.0000°N, 0.0000°E)
Time: 19:43:42
(UTC+02:00)

H-2A R/B - Visible Passes

Search period start: 31 August 2015 00:00
Search period end: 10 September 2015 00:00
Orbit: 278 x 33324 km, 28.4° (Epoch: 30 August)

Date Brightness Start Highest point End Pass type
(mag) Time Alt. Az. Time Alt. Az. Time Alt. Az.
31 Aug 5.8 18:10:40 10° WSW 03:13:00 21° NE 03:14:54 10° NE visible
01 Sep 5.1 13:22:43 10° WNW 13:29:32 87° SSW 21:58:45 32° E visible
02 Sep 5.5 19:05:39 10° WSW 04:00:40 25° NNE 04:03:22 10° NNE visible
03 Sep 5.7 14:11:37 10° WNW 14:21:39 68° SSW 22:47:31 48° E visible
04 Sep 5.4 20:04:27 10° WSW 04:48:16 22° N 04:51:14 10° NNE visible
05 Sep 6.3 15:01:03 10° W 15:17:11 58° SSW 23:36:09 66° E visible
06 Sep 5.4 21:10:54 10° WSW 05:35:48 14° NNW 05:37:50 10° NNW visible
07 Sep 6.9 15:51:11 10° W 00:19:39 85° SSE 00:24:40 85° ESE visible
